[[{"header":{"parameterUnit":"m.s-1","parameterCategory":1,"la1":30.2991,"la2":30.254,"lo1":-89.0895,"lo2":-89.0444,"dy":0.0017,"dx":0.0017,"nx":28,"ny":28,"refTime":"2024-05-25T09:00:00:Z","depth":0,"parameterNumber":2,"parameterNumberName":"U-component_of_WINDS"},"data":[0,0,0,0,0,0,0,0,0,0,0,0,0,0,0,0,0,0,0,0,0,0,0,0,0,0,0,0,0,0,0,0,0,0,0,0,0,0,0,0,0,0,0,0,0,0,0,0,0,0,0,0,0,0,0,0,0,0,-0.0018,-0.0018,0,0.0029,0.0029,0.003,0.0053,0.0053,0.0053,0.0053,0.0102,0.0103,0.0105,0,0,0,0,0,0,0,0,0,0,0,0,0,-0.0088,-0.0087,-0.0018,-0.0018,-0.0017,0.0029,0.0029,0.003,0.0053,0.0053,0.0053,0.0053,0.0102,0.0103,0.0105,0,0,0,0,0,0,0,0,0,0,0,0,0,-0.0051,-0.0086,-0.0018,-0.0,0.0002,0.0029,0.0029,0.003,0.0053,0.0053,0.0053,0.0053,0.0101,0.0103,0.0105,0.0118,0,0,0.0111,0.0112,0,0,0,0,0,0,0,0,-0.0053,-0.0048,-0.0004,-0.0001,0.0001,0.0035,0.0023,0.006,0.0053,0.0033,0.0053,0.0053,0.008,0.0084,0.0092,0.012,0.0122,0.0111,0.0112,0.0113,0.0114,0,0,0,0,0,0,0,-0.0056,-0.005,0.0,-0.0003,-0.0,0.0006,0.0011,0.003,0.0056,0.0035,0.0037,0.0042,0.0081,0.0091,0.0094,0.0123,0.0111,0.0113,0.0114,0.0115,0.0164,0.0164,0,0,0,0,0,0,-0.0061,-0.0052,-0.0001,0.0002,-0.0027,0.0007,0.0013,0.0024,0.0056,0.0061,0.0042,0.0043,0.0087,0.0091,0.0096,0.0113,0.0113,0.0115,0.0116,0.0163,0.0164,0.0164,0,0,0,0,0,0,-0.0063,-0.0057,-0.0003,-0.0025,-0.0018,0.0008,0.0021,0.0025,0.0034,0.0061,0.0066,0.0047,0.0087,0.0093,0.0112,0.0115,0.0116,0.0118,0.0163,0.0164,0.0164,0.0147,0,0,0,0,0,0,-0.0065,-0.0057,-0.0053,-0.0025,-0.0016,0.0012,0.0021,0.0026,0.0038,0.0039,0.0067,0.0072,0.0088,0.0109,0.0114,0.0118,0.0119,0.0163,0.0163,0.0164,0.0147,0.0147,0.0146,0,0,0,0,0,-0.0067,-0.0059,-0.0053,-0.0046,-0.001,0.0012,0.0017,0.0035,0.0038,0.0043,0.006,0.0071,0.0114,0.0111,0.0117,0.0121,0.0163,0.0163,0.0164,0.0148,0.0147,0.0146,0,0,0,0,0,0,-0.0087,-0.0055,-0.0047,-0.003,-0.0012,0.0016,0.0023,0.0033,0.0051,0.0052,0.0074,0.008,0.0098,0.0111,0.0107,0.0135,0.0139,0.0141,0.0125,0.0125,0.0124,0.012,0.0121,0,0,0,0,0,-0.0089,-0.0074,-0.0047,-0.0034,-0.0025,-0.0003,0.0008,0.002,0.004,0.0048,0.0066,0.0086,0.0104,0.0115,0.0133,0.0149,0.0156,0.0155,0.0154,0.0154,0.0155,0.0165,0.0165,0.0164,0.0164,0.0164,0,0,-0.0094,-0.0075,-0.0066,-0.0038,-0.0022,-0.0007,0.0004,0.0019,0.0031,0.005,0.0069,0.0084,0.0107,0.0125,0.0134,0.0137,0.0156,0.0154,0.0153,0.0155,0.0165,0.0165,0.0165,0.0165,0.0165,0.0165,0,0,-0.0094,-0.0078,-0.0066,-0.005,-0.0027,-0.0012,-0.0009,0.0017,0.0028,0.0047,0.0062,0.0076,0.0107,0.0122,0.0134,0.014,0.0151,0.0145,0.0141,0.0151,0.0151,0.0151,0.0153,0.0154,0.0146,0.0146,0.0146,0,-0.0103,-0.0079,-0.0061,-0.0045,-0.0033,-0.0016,-0.0003,0.0012,0.004,0.0048,0.0051,0.0089,0.0106,0.0128,0.0129,0.0138,0.0143,0.0142,0.0149,0.015,0.015,0.0153,0.0153,0.0145,0.0145,0.0146,0.0146,0,-0.0091,-0.0075,-0.0067,-0.0041,-0.0028,-0.0014,0.0007,0.0018,0.0029,0.0044,0.0064,0.0085,0.0107,0.0114,0.0125,0.0137,0.0139,0.0145,0.015,0.0149,0.0152,0.0153,0.0144,0.0145,0.0145,0.0145,0,0,-0.0102,-0.0066,-0.0063,-0.0051,-0.0024,-0.0011,0.0004,0.0026,0.0035,0.0054,0.0067,0.0092,0.0098,0.0112,0.0125,0.0134,0.0137,0.0139,0.014,0.0138,0.0153,0.0148,0.0149,0.0144,0.0144,0.0145,0.0151,0,-0.0099,-0.0072,-0.0054,-0.0034,-0.0019,-0.0002,0.0011,0.003,0.0044,0.0059,0.0075,0.0093,0.01,0.0108,0.0117,0.0135,0.014,0.0135,0.0157,0.0158,0.0151,0.015,0.0145,0.015,0.0152,0.0152,0.0153,0,-0.0091,-0.0073,-0.0051,-0.0026,-0.0019,-0.0007,0.0014,0.0029,0.005,0.006,0.0075,0.0088,0.0105,0.0108,0.0132,0.0128,0.0138,0.0148,0.0149,0.0152,0.0155,0.0153,0.0152,0.0152,0.0154,0.0154,0.0154,0,-0.0102,-0.0072,-0.0055,-0.0045,-0.0014,-0.0007,0.0006,0.0027,0.0039,0.0058,0.0066,0.0087,0.0098,0.0114,0.0133,0.0134,0.0155,0.016,0.0164,0.0164,0.0168,0.0167,0.0168,0.0174,0.0174,0.0174,0.0174,0,-0.0099,-0.0087,-0.0059,-0.0048,-0.0034,-0.0014,0.0001,0.0015,0.0034,0.0048,0.0064,0.0077,0.01,0.0116,0.0131,0.0149,0.0154,0.0163,0.0166,0.0161,0.016,0.0168,0.0169,0.0174,0.0174,0.0174,0.0174,0,-0.0109,-0.0089,-0.007,-0.0043,-0.0036,-0.0026,-0.0003,0.0008,0.0024,0.0041,0.0046,0.007,0.009,0.011,0.0136,0.0146,0.0164,0.0169,0.0156,0.0158,0.0162,0.0161,0.0168,0.017,0.0174,0.0174,0.0174,0,-0.0108,-0.0098,-0.007,-0.006,-0.0047,-0.0031,-0.0019,0.0001,0.0013,0.0038,0.0047,0.0067,0.0085,0.0115,0.0135,0.0156,0.0162,0.0163,0.0165,0.016,0.0162,0.0161,0.0163,0.0162,0.0162,0.0162,0.0162,0,-0.011,-0.0101,-0.0084,-0.0064,-0.005,-0.0033,-0.0016,-0.0008,0.0016,0.0029,0.0049,0.0062,0.0089,0.011,0.0132,0.0147,0.0158,0.0161,0.0163,0.0158,0.015,0.0154,0.0154,0.0161,0.0161,0.0161,0.0161,0.0161,-0.0115,-0.0105,-0.0083,-0.0065,-0.005,-0.0034,-0.0022,-0.0005,0.0011,0.0035,0.0046,0.0066,0.0087,0.0119,0.0133,0.0149,0.0152,0.0155,0.0156,0.0157,0.0155,0.0147,0.0153,0.0154,0.0154,0.0154,0.0154,0,-0.0115,-0.0101,-0.0084,-0.006,-0.0046,-0.0037,-0.0016,-0.0005,0.0012,0.0031,0.0048,0.0071,0.0091,0.0113,0.0134,0.0143,0.0149,0.0148,0.0148,0.0151,0.0151,0.0147,0.0143,0.0143,0.0143,0.0143,0.0143,0.0143,-0.0114,-0.0097,-0.0085,-0.006,-0.0046,-0.0026,-0.0016,-0.0,0.0015,0.004,0.0056,0.007,0.009,0.0113,0.0132,0.0138,0.0145,0.0143,0.015,0.015,0.0151,0.0152,0.0148,0.0144,0.0144,0.0149,0.0149,0.0149]},{"header":{"parameterUnit":"m.s-1","parameterCategory":1,"la1":30.2991,"la2":30.254,"lo1":-89.0895,"lo2":-89.0444,"dy":0.0017,"dx":0.0017,"nx":28,"ny":28,"refTime":"2024-05-25T09:00:00:Z","depth":0,"parameterNumber":3,"parameterNumberName":"V-component_of_WINDS"},"data":[0,0,0,0,0,0,0,0,0,0,0,0,0,0,0,0,0,0,0,0,0,0,0,0,0,0,0,0,0,0,0,0,0,0,0,0,0,0,0,0,0,0,0,0,0,0,0,0,0,0,0,0,0,0,0,0,0,0,4.4838,4.4839,0,4.4896,4.4897,4.4897,4.4845,4.4843,4.4841,4.4839,4.4898,4.4902,4.4905,0,0,0,0,0,0,0,0,0,0,0,0,0,4.4684,4.4687,4.4838,4.4839,4.484,4.4896,4.4897,4.4897,4.4846,4.4843,4.484,4.4838,4.4897,4.4902,4.4906,0,0,0,0,0,0,0,0,0,0,0,0,0,4.4747,4.4688,4.4838,4.4821,4.482,4.4896,4.4897,4.4898,4.4846,4.4843,4.484,4.4837,4.4896,4.4901,4.4906,4.5003,0,0,4.4923,4.4925,0,0,0,0,0,0,0,0,4.4744,4.4753,4.4822,4.4822,4.4821,4.486,4.4864,4.4933,4.4847,4.4836,4.4839,4.4835,4.4888,4.4894,4.4912,4.5006,4.5008,4.4923,4.4926,4.4929,4.493,0,0,0,0,0,0,0,4.4739,4.475,4.4861,4.4824,4.4823,4.481,4.4816,4.4877,4.4879,4.4837,4.4833,4.4841,4.4887,4.4907,4.4913,4.5009,4.4923,4.4928,4.4931,4.4933,4.5186,4.5189,0,0,0,0,0,0,4.4737,4.4747,4.4859,4.4863,4.4774,4.4815,4.4822,4.4851,4.4878,4.488,4.4843,4.4838,4.4899,4.4907,4.4915,4.503,4.4929,4.4934,4.4937,4.5182,4.5186,4.519,0,0,0,0,0,0,4.4734,4.4747,4.4857,4.4804,4.4817,4.4821,4.4855,4.4854,4.4873,4.4883,4.4884,4.4863,4.4897,4.4907,4.4981,4.5031,4.4936,4.4941,4.5178,4.5183,4.5188,4.5261,0,0,0,0,0,0,4.4729,4.4746,4.4783,4.4805,4.482,4.4922,4.4858,4.4857,4.4882,4.4876,4.4902,4.4903,4.4895,4.4974,4.4987,4.5037,4.4945,4.5174,4.518,4.5187,4.5254,4.5268,4.5279,0,0,0,0,0,4.4724,4.4801,4.4785,4.4799,4.4865,4.4925,4.4934,4.4923,4.4887,4.4923,4.493,4.4902,4.5024,4.4982,4.4996,4.5048,4.517,4.5179,4.5186,4.5248,4.5265,4.5279,0,0,0,0,0,0,4.4784,4.4803,4.4786,4.4872,4.4898,4.4916,4.4962,4.4942,4.4978,4.4971,4.4956,4.4963,4.5041,4.5052,4.5005,4.5144,4.5091,4.5102,4.5133,4.5149,4.5162,4.5158,4.4949,0,0,0,0,0,4.4807,4.4854,4.4869,4.4943,4.4957,4.4958,4.4983,4.4973,4.4999,4.501,4.5022,4.5048,4.5092,4.5122,4.5163,4.5255,4.5261,4.5299,4.5311,4.5322,4.5332,4.5382,4.5399,4.5216,4.5216,4.5216,0,0,4.4856,4.4872,4.4902,4.4956,4.4974,4.5023,4.4967,4.5021,4.5058,4.5018,4.5088,4.5099,4.5127,4.5211,4.5249,4.5223,4.5383,4.5332,4.534,4.5344,4.5392,4.5409,4.5425,4.5222,4.5221,4.522,0,0,4.4969,4.4986,4.505,4.507,4.5099,4.5099,4.5115,4.5138,4.5143,4.5214,4.5185,4.5228,4.5305,4.5326,4.5347,4.547,4.5446,4.5484,4.5551,4.5601,4.5615,4.5628,4.5672,4.5688,4.5494,4.5494,4.5494,0,4.5025,4.5098,4.5086,4.5143,4.5167,4.5134,4.5199,4.5219,4.526,4.5278,4.5248,4.5344,4.5361,4.5449,4.548,4.5498,4.5515,4.5481,4.5614,4.5627,4.5638,4.568,4.5697,4.5499,4.5498,4.5498,4.5497,0,4.5166,4.5217,4.5266,4.5306,4.5336,4.5397,4.5395,4.5427,4.5414,4.5418,4.5491,4.551,4.5555,4.5576,4.5564,4.5663,4.5646,4.5616,4.5563,4.5661,4.57,4.5716,4.5505,4.5503,4.5502,4.5501,0,0,4.5318,4.5352,4.537,4.5388,4.5418,4.5457,4.5517,4.5561,4.5589,4.5619,4.5668,4.5734,4.5707,4.5731,4.5721,4.5765,4.5862,4.5729,4.573,4.5753,4.5973,4.5996,4.6014,4.5846,4.5849,4.5852,4.5971,0,4.5432,4.5535,4.5527,4.5625,4.5672,4.5642,4.5693,4.5718,4.5723,4.5764,4.577,4.5817,4.5777,4.5791,4.5833,4.5841,4.5906,4.5832,4.5893,4.5895,4.5886,4.6035,4.6059,4.617,4.5986,4.5988,4.599,0,4.5579,4.5614,4.5717,4.574,4.576,4.5807,4.5847,4.5886,4.5914,4.5915,4.5942,4.5926,4.5987,4.5933,4.6017,4.5967,4.5992,4.6,4.6004,4.6009,4.5948,4.6043,4.6205,4.6222,4.6014,4.6012,4.6011,0,4.5679,4.5752,4.5823,4.584,4.5869,4.5903,4.5917,4.5941,4.5969,4.6004,4.6021,4.6063,4.6086,4.612,4.6116,4.6077,4.6201,4.6147,4.6204,4.6204,4.6231,4.6229,4.6398,4.6247,4.6247,4.6247,4.6246,0,4.5808,4.5872,4.5869,4.5913,4.5984,4.5974,4.6044,4.6054,4.6076,4.6122,4.6099,4.6142,4.6134,4.6177,4.6175,4.6245,4.6255,4.6258,4.6257,4.626,4.626,4.6275,4.6268,4.6251,4.625,4.6249,4.6248,0,4.5931,4.5932,4.6007,4.6029,4.6036,4.6088,4.6107,4.6148,4.6152,4.621,4.6223,4.6229,4.6279,4.6279,4.6336,4.6334,4.642,4.641,4.6411,4.6409,4.6466,4.6461,4.6651,4.6675,4.6509,4.651,4.6511,0,4.6013,4.6061,4.6089,4.6118,4.6134,4.618,4.6208,4.6201,4.6231,4.6266,4.6304,4.6352,4.6389,4.6471,4.6481,4.6525,4.6515,4.6579,4.6522,4.6524,4.6516,4.6514,4.6519,4.659,4.6592,4.6594,4.6595,0,4.6158,4.6156,4.6197,4.6239,4.6273,4.6305,4.6335,4.636,4.6355,4.6391,4.6441,4.6471,4.653,4.6578,4.662,4.6635,4.6615,4.6613,4.6628,4.6632,4.6631,4.6633,4.6441,4.6608,4.6607,4.6606,4.6605,4.6605,4.6263,4.6305,4.6331,4.6378,4.6399,4.6428,4.6468,4.6478,4.652,4.6567,4.656,4.6617,4.6644,4.6699,4.6718,4.6763,4.674,4.6763,4.6769,4.6774,4.6781,4.6624,4.6771,4.677,4.677,4.677,4.6769,0,4.6407,4.6422,4.6465,4.6508,4.6545,4.6523,4.6555,4.6587,4.6638,4.6665,4.6703,4.6762,4.6809,4.6823,4.6868,4.6902,4.6894,4.6914,4.6911,4.6915,4.6798,4.678,4.692,4.692,4.692,4.692,4.692,4.692,4.6486,4.6556,4.6557,4.6638,4.6653,4.6709,4.6729,4.6756,4.6777,4.6844,4.6883,4.6892,4.6914,4.6961,4.7004,4.7007,4.7025,4.7049,4.7048,4.6938,4.6923,4.6909,4.6892,4.7053,4.7053,4.7162,4.7163,4.7164]}]]